Simultaneous Nadir Overpasses (SNOs) Predictions

Prediction of SNOs between AQUA and GOES-15 Satellite Orbit:

Table of predicted SNOs for the next 14.0 days since TLE Epoch: 7/13/2012
Index Date Time (AQUA) AQUA Lat,Lon GOES-15 Lat,Lon Distance(km) Time Diff (sec)
1 07/13/2012 22:41:25 0.04,-136.49 0.29,-135.38 126.63 80
2 07/15/2012 22:29:13 0.66,-133.53 0.30,-135.39 210.30 80
3 07/16/2012 10:50:28 0.39,-138.70 -0.31,-135.40 374.87 80
4 07/18/2012 10:38:17 -0.26,-135.74 -0.31,-135.40 38.58 80
5 07/20/2012 10:26:04 -0.87,-132.78 -0.32,-135.40 297.45 80
6 07/20/2012 22:47:27 -0.23,-137.97 0.33,-135.38 294.92 80
7 07/22/2012 22:35:14 0.40,-135.01 0.33,-135.37 40.65 80
8 07/24/2012 22:23:01 1.06,-132.06 0.33,-135.36 375.68 80
9 07/25/2012 10:44:16 0.04,-137.21 -0.34,-135.37 209.69 80
10 07/27/2012 10:32:02 -0.58,-134.25 -0.35,-135.34 124.26 80




NCC Satellite Simultaneous Nadir Overpasses (SNOs) Prediction Service
